• In Deutschland
  • Länderverzeichnis
  • Für 7 Tage
  • Wassertemperatur
  • Satellitenkarten
  • Wetterkarte
  • Widgets
  • user-avatar
    Anmelden

    Stündliche Wetter Michurins'ke

    Heute, 28 Mai, Montag

    Zeit Temperatur Niederschläge Wind Luftdruck Luftfeuchtigkeit
    00:00 +13°C° 0 mm 4 m/S 731 mmHg 84%
    01:00 +13°C° 0 mm 4 m/S 731 mmHg 85%
    02:00 +13°C° 0 mm 4 m/S 731 mmHg 86%
    03:00 +13°C° 0 mm 4 m/S 731 mmHg 85%
    04:00 +13°C° 0 mm 4 m/S 731 mmHg 85%
    05:00 +13°C° 0 mm 5 m/S 731 mmHg 85%
    06:00 +14°C° 0 mm 5 m/S 732 mmHg 79%
    07:00 +16°C° 0 mm 6 m/S 732 mmHg 72%
    08:00 +17°C° 0 mm 6 m/S 732 mmHg 66%
    09:00 +19°C° 0 mm 6 m/S 732 mmHg 65%
    10:00 +20°C° 0 mm 6 m/S 732 mmHg 63%
    11:00 +21°C° 0 mm 7 m/S 733 mmHg 62%
    12:00 +21°C° 0 mm 7 m/S 732 mmHg 62%
    13:00 +21°C° 0 mm 7 m/S 732 mmHg 62%
    14:00 +21°C° 0 mm 7 m/S 732 mmHg 62%
    15:00 +20°C° 0 mm 7 m/S 732 mmHg 64%
    16:00 +20°C° 0 mm 7 m/S 732 mmHg 65%
    17:00 +19°C° 0 mm 6 m/S 732 mmHg 66%
    18:00 +17°C° 0 mm 6 m/S 732 mmHg 70%
    19:00 +16°C° 0 mm 6 m/S 732 mmHg 73%
    20:00 +15°C° 0 mm 6 m/S 732 mmHg 77%
    21:00 +15°C° 0,1 mm 6 m/S 732 mmHg 78%
    22:00 +15°C° 0,1 mm 6 m/S 732 mmHg 79%
    23:00 +15°C° 0,1 mm 6 m/S 732 mmHg 80%

    Morgen, 29 Mai, Dienstag

    Zeit Temperatur Niederschläge Wind Luftdruck Luftfeuchtigkeit
    00:00 +14°C° 0,1 mm 6 m/S 732 mmHg 79%
    01:00 +14°C° 0,1 mm 6 m/S 732 mmHg 78%
    02:00 +14°C° 0,1 mm 6 m/S 731 mmHg 77%
    03:00 +14°C° 0 mm 6 m/S 731 mmHg 75%
    04:00 +14°C° 0 mm 6 m/S 731 mmHg 73%
    05:00 +14°C° 0 mm 6 m/S 731 mmHg 71%
    06:00 +16°C° 0 mm 7 m/S 731 mmHg 65%
    07:00 +17°C° 0 mm 9 m/S 731 mmHg 59%
    08:00 +19°C° 0 mm 10 m/S 731 mmHg 53%
    09:00 +19°C° 0 mm 10 m/S 732 mmHg 52%
    10:00 +21°C° 0 mm 10 m/S 732 mmHg 52%
    11:00 +21°C° 0 mm 11 m/S 732 mmHg 52%
    12:00 +21°C° 0 mm 11 m/S 732 mmHg 54%
    13:00 +21°C° 0 mm 11 m/S 731 mmHg 55%
    14:00 +21°C° 0 mm 11 m/S 731 mmHg 56%
    15:00 +21°C° 0 mm 11 m/S 731 mmHg 59%
    16:00 +19°C° 0 mm 10 m/S 730 mmHg 62%
    17:00 +19°C° 0 mm 10 m/S 730 mmHg 65%
    18:00 +18°C° 0 mm 10 m/S 730 mmHg 67%
    19:00 +17°C° 0 mm 9 m/S 730 mmHg 70%
    20:00 +16°C° 0 mm 9 m/S 730 mmHg 72%
    21:00 +15°C° 0 mm 9 m/S 730 mmHg 72%
    22:00 +15°C° 0 mm 9 m/S 730 mmHg 72%
    23:00 +15°C° 0 mm 9 m/S 729 mmHg 72%

    übermorgen, 30 Mai, Mittwoch

    Zeit Temperatur Niederschläge Wind Luftdruck Luftfeuchtigkeit
    00:00 +13°C° 0 mm 8 m/S 729 mmHg 69%
    01:00 +13°C° 0 mm 8 m/S 729 mmHg 67%
    02:00 +13°C° 0 mm 8 m/S 728 mmHg 65%
    03:00 +12°C° 0 mm 8 m/S 728 mmHg 64%
    04:00 +12°C° 0 mm 8 m/S 728 mmHg 64%
    05:00 +12°C° 0 mm 7 m/S 728 mmHg 63%
    06:00 +13°C° 0 mm 8 m/S 728 mmHg 60%
    07:00 +16°C° 0 mm 8 m/S 728 mmHg 58%
    08:00 +17°C° 0 mm 8 m/S 728 mmHg 55%
    09:00 +18°C° 0 mm 8 m/S 728 mmHg 53%
    10:00 +20°C° 0 mm 8 m/S 728 mmHg 50%
    11:00 +21°C° 0 mm 8 m/S 729 mmHg 48%
    12:00 +21°C° 0 mm 8 m/S 728 mmHg 48%
    13:00 +21°C° 0 mm 8 m/S 728 mmHg 48%
    14:00 +21°C° 0 mm 8 m/S 728 mmHg 48%
    15:00 +21°C° 0 mm 8 m/S 728 mmHg 51%
    16:00 +20°C° 0 mm 7 m/S 728 mmHg 54%
    17:00 +20°C° 0 mm 7 m/S 728 mmHg 56%
    18:00 +17°C° 0 mm 6 m/S 728 mmHg 63%
    19:00 +16°C° 0 mm 5 m/S 727 mmHg 69%
    20:00 +14°C° 0 mm 5 m/S 727 mmHg 75%
    21:00 +14°C° 0 mm 4 m/S 727 mmHg 78%
    22:00 +14°C° 0 mm 4 m/S 727 mmHg 81%
    23:00 +13°C° 0 mm 4 m/S 726 mmHg 84%

    31 Mai, Donnerstag

    Zeit Temperatur Niederschläge Wind Luftdruck Luftfeuchtigkeit
    00:00 +13°C° 0 mm 4 m/S 726 mmHg 86%
    01:00 +13°C° 0 mm 3 m/S 726 mmHg 87%
    02:00 +13°C° 0 mm 3 m/S 726 mmHg 89%
    03:00 +13°C° 0 mm 3 m/S 725 mmHg 89%
    04:00 +13°C° 0 mm 3 m/S 725 mmHg 88%
    05:00 +13°C° 0 mm 3 m/S 725 mmHg 88%
    06:00 +15°C° 0 mm 4 m/S 725 mmHg 81%
    07:00 +18°C° 0 mm 4 m/S 725 mmHg 73%
    08:00 +20°C° 0 mm 4 m/S 726 mmHg 66%
    09:00 +20°C° 0 mm 4 m/S 725 mmHg 64%
    10:00 +21°C° 0 mm 4 m/S 725 mmHg 62%
    11:00 +22°C° 0 mm 4 m/S 725 mmHg 59%
    12:00 +22°C° 0 mm 4 m/S 725 mmHg 59%
    13:00 +22°C° 0 mm 4 m/S 725 mmHg 58%
    14:00 +22°C° 0 mm 4 m/S 725 mmHg 58%
    15:00 +22°C° 0 mm 4 m/S 725 mmHg 58%
    16:00 +21°C° 0 mm 4 m/S 724 mmHg 57%
    17:00 +21°C° 0 mm 3 m/S 724 mmHg 57%
    18:00 +19°C° 0 mm 3 m/S 724 mmHg 63%
    19:00 +18°C° 0 mm 2 m/S 724 mmHg 68%
    20:00 +16°C° 0 mm 2 m/S 724 mmHg 73%
    21:00 +15°C° 0 mm 2 m/S 724 mmHg 74%
    22:00 +15°C° 0 mm 2 m/S 724 mmHg 74%
    23:00 +15°C° 0 mm 2 m/S 724 mmHg 74%

    1 Juni, Freitag

    Zeit Temperatur Niederschläge Wind Luftdruck Luftfeuchtigkeit
    00:00 +14°C° 0 mm 2 m/S 724 mmHg 74%
    01:00 +14°C° 0 mm 2 m/S 723 mmHg 74%
    02:00 +14°C° 0 mm 2 m/S 723 mmHg 74%
    03:00 +14°C° 0 mm 2 m/S 723 mmHg 75%
    04:00 +15°C° 0 mm 2 m/S 723 mmHg 75%
    05:00 +15°C° 0 mm 2 m/S 723 mmHg 75%
    06:00 +17°C° 0 mm 2 m/S 724 mmHg 68%
    07:00 +20°C° 0 mm 1 m/S 724 mmHg 61%
    08:00 +23°C° 0 mm 1 m/S 724 mmHg 55%
    09:00 +24°C° 0 mm 2 m/S 724 mmHg 51%
    10:00 +25°C° 0 mm 2 m/S 725 mmHg 48%
    11:00 +26°C° 0 mm 2 m/S 725 mmHg 44%
    12:00 +26°C° 0 mm 2 m/S 725 mmHg 45%
    13:00 +26°C° 0 mm 3 m/S 724 mmHg 45%
    14:00 +26°C° 0 mm 3 m/S 724 mmHg 45%
    15:00 +26°C° 0 mm 3 m/S 724 mmHg 48%
    16:00 +25°C° 0 mm 3 m/S 724 mmHg 51%
    17:00 +25°C° 0 mm 3 m/S 724 mmHg 54%
    18:00 +22°C° 0 mm 3 m/S 724 mmHg 60%
    19:00 +20°C° 0 mm 3 m/S 724 mmHg 67%
    20:00 +18°C° 0 mm 3 m/S 724 mmHg 73%
    21:00 +18°C° 0 mm 3 m/S 724 mmHg 75%
    22:00 +17°C° 0 mm 3 m/S 724 mmHg 77%
    23:00 +17°C° 0 mm 3 m/S 724 mmHg 78%

    2 Juni, Samstag

    Zeit Temperatur Niederschläge Wind Luftdruck Luftfeuchtigkeit
    00:00 +16°C° 0 mm 3 m/S 724 mmHg 78%
    01:00 +16°C° 0 mm 2 m/S 723 mmHg 78%
    02:00 +16°C° 0 mm 2 m/S 723 mmHg 78%
    03:00 +16°C° 0 mm 2 m/S 723 mmHg 77%
    04:00 +16°C° 0 mm 2 m/S 723 mmHg 76%
    05:00 +16°C° 0 mm 2 m/S 724 mmHg 76%
    06:00 +18°C° 0 mm 2 m/S 724 mmHg 68%
    07:00 +20°C° 0 mm 3 m/S 724 mmHg 60%
    08:00 +22°C° 0 mm 3 m/S 725 mmHg 52%
    09:00 +23°C° 0 mm 4 m/S 725 mmHg 49%
    10:00 +25°C° 0 mm 4 m/S 725 mmHg 46%
    11:00 +26°C° 0 mm 4 m/S 725 mmHg 43%
    12:00 +26°C° 0,1 mm 4 m/S 725 mmHg 48%
    13:00 +26°C° 0,1 mm 5 m/S 725 mmHg 52%
    14:00 +25°C° 0,1 mm 5 m/S 726 mmHg 56%
    15:00 +23°C° 0,4 mm 5 m/S 726 mmHg 63%
    16:00 +21°C° 0,4 mm 4 m/S 726 mmHg 69%
    17:00 +19°C° 0,4 mm 4 m/S 726 mmHg 76%
    18:00 +18°C° 0,2 mm 4 m/S 726 mmHg 77%
    19:00 +17°C° 0,2 mm 3 m/S 726 mmHg 79%
    20:00 +16°C° 0,2 mm 3 m/S 727 mmHg 80%
    21:00 +16°C° 0,2 mm 3 m/S 727 mmHg 81%
    22:00 +14°C° 0,2 mm 3 m/S 727 mmHg 81%
    23:00 +13°C° 0,2 mm 3 m/S 727 mmHg 82%
    Mehr zeigen